Location: Dumpton Point
(51.3500°N, 1.4433°E)
Time: 12:00:34
(UTC+00:00)

Envisat - Pass Details

Date: 07 December 2021
Orbit: 764 x 766 km, 98.2° (Epoch: 23 January)

Event Time Altitude Azimuth Distance (km) Brightness Sun altitude
Rises 16:38:10 0° 189° (S) 3,221 6.8 -7.7°
Reaches altitude 10° 16:40:38 10° 198° (SSW) 2,300 6.2 -8.0°
Maximum altitude 16:45:17 36° 264° (W) 1,207 4.8 -8.7°
Drops below altitude 10° 16:49:58 10° 331° (NNW) 2,316 5.6 -9.3°
Sets 16:52:29 0° 340° (NNW) 3,247 6.2 -9.7°
